[Iaude] MPEC M20: 2024 MD [a=0.89,e=0.21,i=5.0,H=28.0]

mpec at cfa.harvard.edu mpec at cfa.harvard.edu
Tue Jun 18 13:40:49 EDT 2024


M.P.E.C. 2024-M20                                 Issued 2024 June 18, 17:39 UT

     The Minor Planet Electronic Circulars contain information on unusual
         minor planets, routine data on comets and natural satellites,
         and occasional editorial announcements.  They are published
    on behalf of Division F of the International Astronomical Union by the
          Minor Planet Center, Smithsonian Astrophysical Observatory,
                          Cambridge, MA 02138, U.S.A.
			  
             Prepared using the Tamkin Foundation Computer Network

                              MPC at CFA.HARVARD.EDU
            URL https://www.minorplanetcenter.net/    ISSN 1523-6714

                                    2024 MD                                     


Observations:
     K24M00D  C2024 06 12.37927219 08 52.062+12 18 10.55         20.08RUEM020I41
     K24M00D  C2024 06 12.37961919 08 51.702+12 18 14.70         20.08RUEM020I41
     K24M00D  C2024 06 14.37297718 56 26.768+18 39 03.16         20.84gUEM020I41
     K24M00D  C2024 06 14.37332418 56 26.648+18 39 07.63         20.84gUEM020I41
     K24M00D  C2024 06 15.40138218 37 52.924+26 59 47.20               UEM020I41
     K24M00D  C2024 06 15.40173018 37 52.103+27 00 02.52               UEM020I41
     K24M00D  C2024 06 15.50489518 34 42.154+28 25 22.98         18.07GVEM020F51
     K24M00D  C2024 06 15.51202418 34 23.033+28 31 07.10               VEM020F51
     K24M00D  C2024 06 15.51966118 34 02.530+28 37 14.96         18.33GVEM020F51
     K24M00D  C2024 06 15.52703818 33 42.547+28 43 12.28         18.15GVEM020F51
     K24M00D* C2024 06 16.34823217 36 15.766+46 49 07.93         18.32RUEM020I41
     K24M00D  C2024 06 16.34858017 36 12.359+46 49 46.85         18.32RUEM020I41
     K24M00D  C2024 06 16.38862917 29 08.063+48 08 54.37         19.24gUEM020I41
     K24M00D  C2024 06 16.38897717 29 04.170+48 09 36.48         19.24gUEM020I41
     K24M00D  C2024 06 16.45820317 15 19.784+50 27 25.01         16.03iUEM020I41
     K24M00D  C2024 06 16.45855017 15 15.057+50 28 09.09         16.03iUEM020I41

Observer details:
F51 Pan-STARRS 1, Haleakala.  Observers J. Herman, T. Lowe, P. Minguez, A.
    Schultz, I. Smith.  Measurers K. Chambers, T. de Boer, J. Fairlamb, H.
    Gao, M. Huber, C.-C. Lin, E. Magnier, Y. Ramanjooloo, R. Wainscoat, R.
    Weryk.  1.8-m Ritchey-Chretien + CCD.
I41 Palomar Mountain--ZTF.  Observers G. Helou, T. A. Prince, K.
    Venkataramani, Q.-Z. Ye, Z. T. F. Collaboration, G. Cahaan.  Measurers D.
    A. Duev, H.-W. Lin, A. A. Mahabal, F. J. Masci, Q.-Z. Ye.  1.2-m f/2.4
    Schmidt + ZTF Camera.

Orbital elements:
2024 MD                                                  Earth MOID = 0.0024 AU
Epoch 2024 Mar. 31.0 TT = JDT 2460400.5                 Veres                   
M 146.00440              (2000.0)            P               Q                  
n   1.17239342     Peri.  318.47352     +0.69159027     -0.71699076             
a   0.8907458      Node    87.56889     +0.68360347     +0.61070535             
e   0.2112165      Incl.    5.01475     +0.23321491     +0.33610004             
P   0.84           H   28.00          G   0.15           U   6                  
Residuals in seconds of arc
240612 I41  1.5+  0.7-    240615 F51  0.4+  0.6-    240616 I41  0.2-  0.1+
240612 I41  1.6-  1.0+    240615 F51  0.5-  0.5+    240616 I41  0.7-  0.9+
240614 I41  0.5+  0.2-    240615 F51  0.1+  0.2-    240616 I41  3.2+  2.4-
240614 I41 (3.8+  2.5-)   240615 F51  0.1-  0.1+    240616 I41  0.4+  0.1+
240615 I41  0.1+  0.0     240616 I41  0.7+  0.3-
240615 I41  0.1-  0.2+    240616 I41 (1.7+  2.3-)

Ephemeris:
2024 MD                  a,e,i = 0.89, 0.21, 5                   q = 0.7026
Date    TT    R. A. (2000) Decl.     Delta      r    Elong.  Phase     V
2024 05 19    19 12 48.1 +02 51 52   0.09586 1.0682   123.9    51.8    25.0
...
2024 06 03    19 18 12.4 +05 51 30   0.04597 1.0462   133.0    45.1    23.1
...
2024 06 11    19 12 32.0 +10 17 56   0.01989 1.0298   136.3    42.9    21.2
...
2024 06 17    13 17 00.3 +65 33 02   0.0025841.0154    77.9   101.9    18.8
2024 06 18    08 32 28.0 +30 00 21   0.0040271.0128    37.4   142.4    23.2
2024 06 19    07 57 14.9 +13 49 21   0.0068611.0102    31.4   148.4    25.3
...
2024 06 25    07 28 09.1 -01 15 13   0.02606 0.9940    30.3   149.0    28.3
...
2024 07 03    07 22 02.7 -03 15 50   0.05265 0.9703    27.4   151.1    30.2
...
2024 07 18    07 18 04.8 -02 09 27   0.1068  0.9201    24.5   152.8    32.0

M. P. C. Staff               (C) Copyright 2024 MPC           M.P.E.C. 2024-M20





More information about the Iaude mailing list